Hourly Weather Horbanivka

Today, 22 April, Thursday

Time Temperature Precipitation Wind Pressure Humidity
00:00 +6°C° 0.2 mm 4 mps 732 mmHg 87%
01:00 +6°C° 0.2 mm 4 mps 732 mmHg 88%
02:00 +5°C° 0 mm 4 mps 732 mmHg 90%
03:00 +5°C° 0 mm 4 mps 732 mmHg 90%
04:00 +5°C° 0 mm 3 mps 732 mmHg 90%
05:00 +4°C° 0 mm 3 mps 732 mmHg 91%
06:00 +6°C° 0 mm 4 mps 732 mmHg 86%
07:00 +7°C° 0 mm 4 mps 732 mmHg 82%
08:00 +9°C° 0 mm 5 mps 732 mmHg 77%
09:00 +10°C° 0.3 mm 5 mps 732 mmHg 73%
10:00 +11°C° 0.3 mm 6 mps 732 mmHg 68%
11:00 +13°C° 0.3 mm 6 mps 732 mmHg 63%
12:00 +11°C° 0.9 mm 6 mps 732 mmHg 69%
13:00 +10°C° 0.9 mm 6 mps 732 mmHg 74%
14:00 +9°C° 0.9 mm 6 mps 732 mmHg 80%
15:00 +9°C° 1 mm 6 mps 732 mmHg 82%
16:00 +8°C° 1 mm 6 mps 732 mmHg 84%
17:00 +8°C° 1 mm 6 mps 732 mmHg 85%
18:00 +7°C° 1.6 mm 5 mps 732 mmHg 87%
19:00 +5°C° 1.6 mm 4 mps 733 mmHg 89%
20:00 +4°C° 1.6 mm 3 mps 734 mmHg 91%
21:00 +3°C° 0.1 mm 3 mps 734 mmHg 92%
22:00 +3°C° 0.1 mm 3 mps 734 mmHg 93%
23:00 +2°C° 0.1 mm 3 mps 734 mmHg 94%

Tomorrow, 23 April, Friday

Time Temperature Precipitation Wind Pressure Humidity
00:00 +2°C° 0 mm 3 mps 734 mmHg 93%
01:00 +2°C° 0 mm 3 mps 734 mmHg 92%
02:00 +1°C° 0 mm 3 mps 734 mmHg 91%
03:00 +2°C° 0 mm 2 mps 734 mmHg 90%
04:00 +2°C° 0 mm 2 mps 734 mmHg 90%
05:00 +2°C° 0 mm 2 mps 734 mmHg 89%
06:00 +1°C° 0 mm 3 mps 735 mmHg 84%
07:00 +1°C° 0 mm 4 mps 735 mmHg 79%
08:00 +3°C° 0 mm 4 mps 735 mmHg 74%
09:00 +4°C° 0.1 mm 4 mps 735 mmHg 69%
10:00 +5°C° 0.1 mm 4 mps 735 mmHg 64%
11:00 +6°C° 0.1 mm 4 mps 735 mmHg 59%
12:00 +6°C° 0.4 mm 5 mps 735 mmHg 59%
13:00 +5°C° 0.4 mm 6 mps 735 mmHg 59%
14:00 +5°C° 0.4 mm 6 mps 735 mmHg 59%
15:00 +5°C° 0.1 mm 6 mps 735 mmHg 58%
16:00 +5°C° 0.1 mm 6 mps 735 mmHg 57%
17:00 +5°C° 0.1 mm 6 mps 735 mmHg 56%
18:00 +5°C° 0 mm 5 mps 735 mmHg 62%
19:00 +4°C° 0 mm 4 mps 736 mmHg 68%
20:00 +3°C° 0 mm 3 mps 736 mmHg 74%
21:00 +2°C° 0 mm 3 mps 736 mmHg 77%
22:00 +1°C° 0 mm 4 mps 736 mmHg 81%
23:00 +1°C° 0 mm 4 mps 736 mmHg 84%

Day after tomorrow, 24 April, Saturday

Time Temperature Precipitation Wind Pressure Humidity
00:00 0°C° 0.1 mm 4 mps 736 mmHg 87%
01:00 0°C° 0.1 mm 5 mps 736 mmHg 90%
02:00 0°C° 0.1 mm 5 mps 736 mmHg 93%
03:00 -1°C° 0.3 mm 5 mps 736 mmHg 91%
04:00 -1°C° 0.3 mm 4 mps 736 mmHg 90%
05:00 -1°C° 0.3 mm 4 mps 737 mmHg 88%
06:00 -1°C° 0 mm 4 mps 737 mmHg 84%
07:00 0°C° 0 mm 5 mps 737 mmHg 79%
08:00 -1°C° 0 mm 6 mps 738 mmHg 75%
09:00 +1°C° 0.1 mm 6 mps 738 mmHg 68%
10:00 +2°C° 0.1 mm 6 mps 738 mmHg 61%
11:00 +4°C° 0.1 mm 6 mps 738 mmHg 53%
12:00 +4°C° 0.1 mm 6 mps 738 mmHg 52%
13:00 +4°C° 0.1 mm 6 mps 738 mmHg 50%
14:00 +5°C° 0.1 mm 6 mps 737 mmHg 49%
15:00 +5°C° 0 mm 6 mps 737 mmHg 49%
16:00 +6°C° 0 mm 5 mps 737 mmHg 50%
17:00 +6°C° 0 mm 5 mps 737 mmHg 51%
18:00 +5°C° 0 mm 4 mps 737 mmHg 56%
19:00 +4°C° 0 mm 3 mps 737 mmHg 62%
20:00 +3°C° 0 mm 2 mps 737 mmHg 67%
21:00 +3°C° 0 mm 2 mps 737 mmHg 68%
22:00 +3°C° 0 mm 2 mps 737 mmHg 69%
23:00 +1°C° 0 mm 3 mps 736 mmHg 70%

25 April, Sunday

Time Temperature Precipitation Wind Pressure Humidity
00:00 +1°C° 0 mm 3 mps 736 mmHg 72%
01:00 +1°C° 0 mm 3 mps 736 mmHg 75%
02:00 +2°C° 0 mm 2 mps 736 mmHg 78%
03:00 +3°C° 0.1 mm 2 mps 736 mmHg 83%
04:00 +3°C° 0.1 mm 2 mps 735 mmHg 89%
05:00 +3°C° 0.1 mm 2 mps 735 mmHg 94%
06:00 +2°C° 0.1 mm 3 mps 735 mmHg 91%
07:00 +3°C° 0.1 mm 3 mps 735 mmHg 88%
08:00 +3°C° 0.1 mm 4 mps 735 mmHg 84%
09:00 +3°C° 0.1 mm 4 mps 735 mmHg 83%
10:00 +3°C° 0.1 mm 3 mps 736 mmHg 81%
11:00 +2°C° 0.1 mm 3 mps 736 mmHg 80%
12:00 +3°C° 0 mm 3 mps 736 mmHg 72%
13:00 +4°C° 0 mm 4 mps 736 mmHg 64%
14:00 +5°C° 0 mm 4 mps 736 mmHg 56%
15:00 +5°C° 0 mm 4 mps 735 mmHg 54%
16:00 +5°C° 0 mm 4 mps 735 mmHg 53%
17:00 +5°C° 0 mm 3 mps 735 mmHg 51%
18:00 +4°C° 0 mm 3 mps 735 mmHg 60%
19:00 +3°C° 0 mm 3 mps 735 mmHg 68%
20:00 +2°C° 0 mm 3 mps 735 mmHg 76%
21:00 +1°C° 0 mm 3 mps 735 mmHg 80%
22:00 +1°C° 0 mm 3 mps 735 mmHg 84%
23:00 +1°C° 0 mm 2 mps 735 mmHg 88%

26 April, Monday

Time Temperature Precipitation Wind Pressure Humidity
00:00 0°C° 0 mm 3 mps 735 mmHg 88%
01:00 -1°C° 0 mm 3 mps 735 mmHg 88%
02:00 -1°C° 0 mm 3 mps 735 mmHg 87%
03:00 -2°C° 0 mm 3 mps 735 mmHg 87%
04:00 -2°C° 0 mm 3 mps 735 mmHg 87%
05:00 -3°C° 0 mm 4 mps 735 mmHg 87%
06:00 -2°C° 0 mm 4 mps 735 mmHg 81%
07:00 -1°C° 0 mm 4 mps 735 mmHg 75%
08:00 0°C° 0 mm 4 mps 735 mmHg 69%
09:00 +1°C° 0.1 mm 4 mps 735 mmHg 62%
10:00 +2°C° 0.1 mm 5 mps 735 mmHg 54%
11:00 +3°C° 0.1 mm 5 mps 735 mmHg 47%
12:00 +5°C° 0 mm 5 mps 735 mmHg 45%
13:00 +6°C° 0 mm 5 mps 734 mmHg 43%
14:00 +6°C° 0 mm 5 mps 734 mmHg 41%
15:00 +6°C° 0 mm 5 mps 734 mmHg 41%
16:00 +7°C° 0 mm 4 mps 734 mmHg 42%
17:00 +7°C° 0 mm 4 mps 733 mmHg 42%
18:00 +5°C° 0 mm 3 mps 733 mmHg 49%
19:00 +5°C° 0 mm 2 mps 733 mmHg 56%
20:00 +3°C° 0 mm 2 mps 733 mmHg 63%
21:00 +3°C° 0 mm 2 mps 733 mmHg 66%
22:00 +2°C° 0 mm 2 mps 733 mmHg 68%
23:00 +2°C° 0 mm 2 mps 734 mmHg 71%

27 April, Tuesday

Time Temperature Precipitation Wind Pressure Humidity
00:00 +2°C° 0 mm 2 mps 733 mmHg 73%
01:00 +1°C° 0 mm 2 mps 733 mmHg 75%
02:00 +1°C° 0 mm 2 mps 733 mmHg 77%
03:00 +1°C° 0 mm 2 mps 733 mmHg 77%
04:00 +1°C° 0 mm 2 mps 733 mmHg 77%
05:00 +1°C° 0 mm 2 mps 733 mmHg 78%
06:00 +3°C° 0 mm 2 mps 733 mmHg 72%
07:00 +4°C° 0 mm 2 mps 733 mmHg 66%
08:00 +6°C° 0 mm 2 mps 733 mmHg 60%
09:00 +8°C° 0 mm 2 mps 733 mmHg 56%
10:00 +9°C° 0 mm 2 mps 732 mmHg 52%
11:00 +10°C° 0 mm 3 mps 732 mmHg 48%
12:00 +11°C° 0 mm 3 mps 732 mmHg 46%
13:00 +12°C° 0 mm 3 mps 731 mmHg 44%
14:00 +12°C° 0 mm 3 mps 731 mmHg 42%
15:00 +12°C° 0 mm 3 mps 730 mmHg 43%
16:00 +13°C° 0 mm 3 mps 730 mmHg 44%
17:00 +13°C° 0 mm 3 mps 730 mmHg 45%
18:00 +11°C° 0 mm 3 mps 729 mmHg 55%
19:00 +9°C° 0 mm 3 mps 729 mmHg 65%
20:00 +8°C° 0 mm 3 mps 729 mmHg 75%
21:00 +7°C° 0 mm 3 mps 729 mmHg 81%
22:00 +5°C° 0 mm 3 mps 729 mmHg 86%
23:00 +4°C° 0 mm 3 mps 728 mmHg 92%
Show more

We Need Your Consent

Meteoprog and our Service Providers may store and access personal data such as cookies, device identifiers or other similar technologies on your device and process such data to personalise content and ads, as well as provide social media features and to analyse the traffic.

  • Store and/or access information on your device

    Cookies, device identifiers or other information can be stored or accessed on your device for the purposes indicated above.

  • Personalised ads and content, ad and content measurement, audience insights, and products development

    Ads and content can be personalised based on a profile. More data can be added to better personalise ads and content. Ad and content performance can be measured. Insights about the audience who saw the ads and content can be derived. Such data can be used to develop or improve user’s experience, systems and software.

By clicking ‘I Agree’ you will allow the use of indicated cookies, device identifiers, web beacons or other similar technologies. Your settings can be changed in the browser on your device.

For certain purposes, legitimate interests may be relied on, rather than consent. You can read more about this in our Privacy and Cookie Policy.